Overview Statistics Trail Chart Weather Telemetry Raw packets
 

This is the latest recevied weather packets stored in our database for station/object K4XP. If no packets are shown the sender has not sent any weather packets the latest 10 day(s).

<< 75 76 77 78 79 80 81 >>
Time Temp. Humidity Pressure Rain* Wind** Luminosity Snow
1788048632 28.33° C 71% 1020.1 hPa 0 mm - - -
1788048333 28.33° C 69% 1020.1 hPa 0 mm - - -
1788048034 28.89° C 69% 1020.1 hPa 0 mm - - -
1788047727 28.89° C 69% 1020.1 hPa 0 mm - - -
1788047130 29.44° C 68% 1020 hPa 0 mm - - -
1788046824 29.44° C 67% 1020 hPa 0 mm - - -
1788046538 30° C 67% 1019.9 hPa 0 mm - - -
1788046240 30° C 67% 1020.1 hPa 0 mm - - -
1788045931 30.56° C 66% 1020 hPa 0 mm - - -
1788045631 30.56° C 66% 1019.9 hPa 0 mm - - -
1788045322 30.56° C 65% 1019.9 hPa 0 mm - - -
1788045022 30.56° C 64% 1019.8 hPa 0 mm - - -
1788044735 30.56° C 63% 1019.8 hPa 0 mm - - -
1788044442 31.11° C 63% 1019.8 hPa 0 mm - - -
1788044134 31.11° C 64% 1019.8 hPa 0 mm - - -
1788043834 31.11° C 64% 1019.8 hPa 0 mm - - -
1788043524 31.11° C 63% 1019.7 hPa 0 mm - - -
1788043232 31.11° C 64% 1019.8 hPa 0 mm - - -
1788042940 30.56° C 65% 1019.8 hPa 0 mm - - -
1788042642 30.56° C 66% 1019.9 hPa 0 mm - - -
1788042341 30.56° C 66% 1019.9 hPa 0 mm - - -
1788042036 30° C 68% 1019.9 hPa 0 mm - - -
1788041733 30° C 68% 1019.8 hPa 0 mm - - -
1788041426 30° C 65% 1019.8 hPa 0 mm - - -
1788041128 30° C 64% 1019.9 hPa 0 mm - - -

* Rain latest hour (hover to see other rain measurements)
** Current wind speed in m/s (hover to see current wind gust speed)